| time (UTC) | temp F | wind direction | speed knots | gust knots | rain 1hr in | rain 24hr in | rain mn in | humidity % | barometer mb |
| 20260504044531 | 73 | 144 | 8.7 | 12.2 | 0.00 | 0.00 | 0.00 | 70 | 1019.6 |
| 20260504043044 | 73 | 178 | 7.8 | 13.0 | 0.00 | 0.00 | 0.00 | 71 | 1019.7 |
| 20260504041534 | 73 | 144 | 8.7 | 13.0 | 0.00 | 0.00 | 0.00 | 71 | 1019.8 |
| 20260504040029 | 73 | 138 | 9.6 | 12.2 | 0.00 | 0.00 | 0.00 | 71 | 1019.6 |
| 20260504034529 | 73 | 139 | 7.8 | 12.2 | 0.00 | 0.00 | 0.00 | 69 | 1019.5 |
| 20260504033028 | 73 | 150 | 9.6 | 12.2 | 0.00 | 0.00 | 0.00 | 71 | 1019.3 |
| 20260504031528 | 73 | 138 | 9.6 | 13.0 | 0.00 | 0.00 | 0.00 | 70 | 1019.4 |
| 20260504030034 | 73 | 134 | 9.6 | 13.0 | 0.00 | 0.00 | 0.00 | 68 | 1019.3 |
| 20260504024528 | 73 | 142 | 10.4 | 12.2 | 0.00 | 0.00 | 0.00 | 68 | 1019.3 |
| 20260504023026 | 74 | 137 | 8.7 | 12.2 | 0.00 | 0.00 | 0.00 | 68 | 1019.3 |
| 20260504021526 | 74 | 132 | 9.6 | 12.2 | 0.00 | 0.00 | 0.00 | 66 | 1019.2 |
| 20260504020034 | 74 | 139 | 9.6 | 13.0 | 0.00 | 0.00 | 0.00 | 68 | 1019.0 |
| 20260504014525 | 74 | 132 | 10.4 | 13.0 | 0.00 | 0.00 | 0.00 | 67 | 1019.0 |
| 20260504013033 | 74 | 132 | 10.4 | 15.6 | 0.00 | 0.00 | 0.00 | 67 | 1018.9 |
| 20260504011523 | 74 | 134 | 11.3 | 14.8 | 0.00 | 0.00 | 0.00 | 68 | 1018.8 |
| 20260504010022 | 74 | 131 | 9.6 | 13.9 | 0.00 | 0.00 | 0.00 | 68 | 1018.9 |
| 20260504004535 | 74 | 135 | 9.6 | 13.0 | 0.00 | 0.00 | 0.00 | 65 | 1018.9 |
| 20260504003019 | 75 | 127 | 9.6 | 13.9 | 0.00 | 0.00 | 0.00 | 67 | 1019.1 |
| 20260504001530 | 75 | 112 | 7.8 | 13.9 | 0.00 | 0.00 | 0.00 | 66 | 1019.1 |
| 20260504000019 | 75 | 130 | 9.6 | 13.9 | 0.00 | 0.00 | 0.00 | 66 | 1019.2 |
| 20260503234519 | 75 | 134 | 10.4 | 13.9 | 0.00 | 0.00 | 0.00 | 67 | 1019.2 |
| 20260503233016 | 75 | 138 | 10.4 | 13.9 | 0.00 | 0.00 | 0.00 | 65 | 1019.2 |
| 20260503231515 | 75 | 126 | 8.7 | 13.0 | 0.00 | 0.00 | 0.00 | 64 | 1019.4 |
| 20260503230017 | 76 | 130 | 9.6 | 13.9 | 0.00 | 0.00 | 0.00 | 66 | 1019.4 |
| 20260503224513 | 76 | 132 | 9.6 | 13.0 | 0.00 | 0.00 | 0.00 | 64 | 1019.4 |
| 20260503223012 | 76 | 132 | 9.6 | 12.2 | 0.00 | 0.00 | 0.00 | 64 | 1019.5 |
| 20260503221510 | 76 | 128 | 8.7 | 14.8 | 0.00 | 0.00 | 0.00 | 60 | 1019.7 |
| 20260503220019 | 76 | 123 | 8.7 | 13.0 | 0.00 | 0.00 | 0.00 | 61 | 1020.2 |
| 20260503214512 | 77 | 132 | 8.7 | 12.2 | 0.00 | 0.00 | 0.00 | 62 | 1020.3 |
| 20260503213002 | 77 | 130 | 7.8 | 13.0 | 0.00 | 0.00 | 0.00 | 60 | 1020.7 |
| 20260503211602 | 77 | 136 | 9.6 | 13.0 | 0.00 | 0.00 | 0.00 | 58 | 1020.9 |
| 20260503210059 | 77 | 135 | 7.8 | 12.2 | 0.00 | 0.00 | 0.00 | 60 | 1021.0 |
| 20260503204559 | 77 | 137 | 7.8 | 12.2 | 0.00 | 0.00 | 0.00 | 57 | 1021.2 |
| 20260503203054 | 77 | 131 | 7.8 | 11.3 | 0.00 | 0.00 | 0.00 | 58 | 1021.4 |
| 20260503201553 | 77 | 110 | 7.8 | 11.3 | 0.00 | 0.00 | 0.00 | 57 | 1021.5 |
| 20260503200050 | 77 | 148 | 7.0 | 11.3 | 0.00 | 0.00 | 0.00 | 60 | 1021.7 |
| 20260503194603 | 77 | 134 | 8.7 | 11.3 | 0.00 | 0.00 | 0.00 | 57 | 1021.8 |
| 20260503193046 | 77 | 109 | 5.2 | 9.6 | 0.00 | 0.00 | 0.00 | 56 | 1022.1 |
| 20260503191551 | 77 | 111 | 6.1 | 9.6 | 0.00 | 0.00 | 0.00 | 56 | 1022.4 |
| 20260503190046 | 77 | 102 | 6.1 | 8.7 | 0.00 | 0.00 | 0.00 | 59 | 1022.6 |
| 20260503184543 | 77 | 99 | 6.1 | 9.6 | 0.00 | 0.00 | 0.00 | 57 | 1022.7 |
| 20260503183042 | 77 | 119 | 5.2 | 8.7 | 0.00 | 0.00 | 0.00 | 61 | 1023.1 |
| 20260503181554 | 77 | 96 | 4.3 | 8.7 | 0.00 | 0.00 | 0.00 | 58 | 1023.3 |
| 20260503180045 | 77 | 112 | 3.5 | 7.0 | 0.00 | 0.00 | 0.00 | 63 | 1023.5 |
| 20260503174533 | 76 | 108 | 5.2 | 8.7 | 0.00 | 0.00 | 0.00 | 61 | 1023.6 |
| 20260503173031 | 77 | 107 | 5.2 | 7.8 | 0.00 | 0.00 | 0.00 | 59 | 1023.6 |
| 20260503171530 | 76 | 111 | 5.2 | 7.8 | 0.00 | 0.00 | 0.00 | 56 | 1023.8 |
| 20260503081520 | 59 | 336 | 2.6 | 3.5 | 0.00 | 0.00 | 0.00 | 83 | 1022.4 |
| 20260503071512 | 60 | 333 | 1.7 | 3.5 | 0.00 | 0.00 | 0.00 | 82 | 1022.5 |